Weather History for Nashua, NH

Change the Weather History Date:

Saturday, April 26, 2014

  Actual Average Record
Temperature  
Mean Temperature 46 °F -  
Max Temperature 52 °F 60 °F 78 °F (1970)
Min Temperature 41 °F 35 °F 24 °F (1967)
Degree Days  
Heating Degree Days 18    
Moisture  
Dew Point 39 °F    
Average Humidity 85    
Maximum Humidity 93    
Minimum Humidity 47    
Precipitation  
Precipitation 0.20 in - - ()
Sea Level Pressure  
Sea Level Pressure 30.34 in    
Wind  
Wind Speed 5 mph (ESE)    
Max Wind Speed 10 mph    
Max Gust Speed -    
Visibility 7 miles    
Events Rain    
Averages and records for this station are not official NWS values.
T = Trace of Precipitation, MM = Missing Value Source: NWS Daily Summary

Daily Weather History Graph

Daily Weather History Graph

Search for Another Location

Airport:

Trip Planner

Search our weather history database for the weather conditions in past years. The results will help you decide how hot, cold, wet, or windy it might be!

Date:

Astronomy

Apr. 26, 2014 Rise Set
Actual Time 5:47 AM EDT 7:40 PM EDT
Civil Twilight 5:17 AM EDT 8:11 PM EDT
Nautical Twilight 4:40 AM EDT 8:48 PM EDT
Astronomical Twilight 4:00 AM EDT 9:29 PM EDT
Moon 4:14 AM EDT (4/26) 5:02 PM EDT (4/26)
Length of Visible Light 14h 54m
Length of Day
13h 53m
Waning Crescent, 8% of the Moon is Illuminated
Apr 26
Waning Crescent
Apr 29
New
May 6
First Quarter
May 14
Full
May 21
Last Quarter

Hourly Weather History & Observations

Time (EDT) Temp. Windchill Dew Point Humidity Pressure Visibility Wind Dir Wind Speed Gust Speed Precip Events Conditions
12:51 AM 52.0 °F - 32.0 °F 47% 30.54 in 10.0 mi SE 5.8 mph - N/A   Mostly Cloudy
2:51 AM 48.9 °F - 32.0 °F 52% 30.51 in 10.0 mi SE 5.8 mph - N/A   Clear
3:51 AM 47.8 °F - 32.0 °F 54% 30.52 in 10.0 mi SE 4.6 mph - N/A   Partly Cloudy
4:51 AM 46.9 °F - 32.9 °F 58% 30.54 in 10.0 mi South 5.8 mph - N/A   Mostly Cloudy
5:51 AM 46.9 °F - 34.0 °F 61% 30.54 in 10.0 mi SE 3.5 mph - N/A   Clear
6:51 AM 41.9 °F 40.0 °F 37.9 °F 86% 30.55 in 5.0 mi Variable 3.5 mph - 0.02 in Rain Light Rain
7:51 AM 41.9 °F 39.0 °F 39.9 °F 93% 30.57 in 10.0 mi West 4.6 mph - 0.02 in Rain Light Rain
8:51 AM 41.9 °F 40.0 °F 39.9 °F 93% 30.56 in 7.0 mi NW 3.5 mph - 0.00 in Rain Light Rain
9:40 AM 42.8 °F 41.1 °F 41.0 °F 93% 29.82 in 5.0 mi East 3.5 mph - 0.03 in Rain Light Rain
9:51 AM 43.0 °F - 41.0 °F 93% 30.56 in 5.0 mi Calm Calm - 0.04 in Rain Light Rain
10:08 AM 42.8 °F 41.1 °F 41.0 °F 93% 29.82 in 4.0 mi NE 3.5 mph - 0.02 in Rain Light Rain
10:17 AM 42.8 °F 41.1 °F 41.0 °F 93% 29.82 in 5.0 mi Variable 3.5 mph - 0.02 in Rain Light Rain
10:51 AM 43.9 °F 42.3 °F 41.9 °F 93% 30.56 in 6.0 mi East 3.5 mph - 0.04 in Rain Light Rain
11:03 AM 44.6 °F 41.4 °F 42.8 °F 93% 29.82 in 4.0 mi ENE 5.8 mph - 0.01 in Rain Light Rain
11:19 AM 44.6 °F 40.2 °F 42.8 °F 93% 29.82 in 5.0 mi East 8.1 mph - 0.02 in Rain Light Rain
12:51 PM 43.9 °F 39.3 °F 41.9 °F 93% 30.55 in 3.0 mi ESE 8.1 mph - 0.04 in Rain Light Rain
1:51 PM 43.9 °F 38.8 °F 41.9 °F 93% 30.55 in 3.0 mi ESE 9.2 mph - 0.02 in Rain Light Rain
2:51 PM 43.9 °F 38.8 °F 41.9 °F 93% 30.54 in 5.0 mi ESE 9.2 mph - 0.02 in Rain Light Rain
3:51 PM 43.9 °F 39.9 °F 41.9 °F 93% 30.54 in 5.0 mi SE 6.9 mph - 0.00 in   Overcast
3:58 PM 44.6 °F 41.4 °F 41.0 °F 87% 29.80 in 10.0 mi ESE 5.8 mph - N/A   Overcast
4:05 PM 44.6 °F 40.7 °F 41.0 °F 87% 29.80 in 5.0 mi SE 6.9 mph - N/A   Overcast
5:51 PM 43.9 °F 42.3 °F 41.0 °F 90% 30.56 in 6.0 mi East 3.5 mph - N/A   Overcast
6:51 PM 43.9 °F 38.3 °F 41.0 °F 90% 30.58 in 4.0 mi SSE 10.4 mph - N/A   Overcast
7:51 PM 43.0 °F 37.7 °F 39.9 °F 89% 30.59 in 4.0 mi East 9.2 mph - N/A   Overcast
8:51 PM 43.0 °F 39.5 °F 38.8 °F 85% 30.61 in 6.0 mi East 5.8 mph - N/A   Overcast
9:51 PM 41.9 °F 37.5 °F 38.8 °F 89% 30.62 in 10.0 mi ESE 6.9 mph - N/A   Overcast
10:23 PM 42.8 °F 41.1 °F 39.2 °F 87% 29.88 in 10.0 mi ESE 3.5 mph - N/A   Overcast
10:51 PM 41.9 °F 40.0 °F 38.8 °F 89% 30.62 in 10.0 mi East 3.5 mph - 0.00 in Rain Light Rain
11:12 PM 42.8 °F 38.6 °F 39.2 °F 87% 29.87 in 10.0 mi East 6.9 mph - 0.00 in Rain Light Rain
11:51 PM 41.9 °F 40.0 °F 39.9 °F 93% 30.62 in 10.0 mi Variable 3.5 mph - 0.00 in   Overcast